When you browse on this site, cookies collect data to enhance your experience and personalize the content and advertising you see.
Visit our Privacy Policy to learn more. By continuing to use the site, you agree to this use of cookies and data.
  • In Austria
  • List of Countries
  • For 7 days
  • Water Temperature
  • Weather Map
  • News
  • Weather Widgets
  • user-avatar
    Login

    Hourly Weather Belize

    Today, 20 January, Monday

    Time Temperature Precipitation Wind Pressure Humidity
    00:00 +23°C° 0.2 mm 2 mps 763 mmHg 98%
    01:00 +21°C° 0.4 mm 3 mps 762 mmHg 99%
    02:00 +21°C° 0.4 mm 3 mps 762 mmHg 99%
    03:00 +21°C° 0.4 mm 3 mps 762 mmHg 99%
    04:00 +21°C° 0.2 mm 4 mps 762 mmHg 99%
    05:00 +21°C° 0.2 mm 4 mps 762 mmHg 99%
    06:00 +21°C° 0.2 mm 4 mps 763 mmHg 99%
    07:00 +22°C° 0 mm 4 mps 763 mmHg 92%
    08:00 +25°C° 0 mm 4 mps 764 mmHg 86%
    09:00 +26°C° 0 mm 4 mps 764 mmHg 79%
    10:00 +28°C° 0 mm 4 mps 764 mmHg 71%
    11:00 +29°C° 0 mm 3 mps 764 mmHg 64%
    12:00 +31°C° 0 mm 3 mps 763 mmHg 56%
    13:00 +30°C° 0.3 mm 3 mps 763 mmHg 68%
    14:00 +29°C° 0.3 mm 3 mps 763 mmHg 80%
    15:00 +27°C° 0.3 mm 3 mps 762 mmHg 92%
    16:00 +26°C° 0.4 mm 3 mps 762 mmHg 93%
    17:00 +25°C° 0.4 mm 3 mps 762 mmHg 95%
    18:00 +24°C° 0.4 mm 2 mps 762 mmHg 96%
    19:00 +22°C° 0.8 mm 3 mps 763 mmHg 97%
    20:00 +22°C° 0.8 mm 4 mps 763 mmHg 97%
    21:00 +22°C° 0.8 mm 4 mps 764 mmHg 97%
    22:00 +21°C° 0.9 mm 5 mps 764 mmHg 98%
    23:00 +21°C° 0.9 mm 6 mps 764 mmHg 98%

    Tomorrow, 21 January, Tuesday

    Time Temperature Precipitation Wind Pressure Humidity
    00:00 +21°C° 0.9 mm 6 mps 764 mmHg 99%
    01:00 +21°C° 0.2 mm 6 mps 764 mmHg 98%
    02:00 +20°C° 0.2 mm 6 mps 763 mmHg 98%
    03:00 +20°C° 0.2 mm 6 mps 763 mmHg 98%
    04:00 +20°C° 0 mm 6 mps 763 mmHg 98%
    05:00 +20°C° 0 mm 6 mps 764 mmHg 98%
    06:00 +20°C° 0 mm 7 mps 764 mmHg 97%
    07:00 +20°C° 0 mm 7 mps 765 mmHg 96%
    08:00 +20°C° 0 mm 7 mps 765 mmHg 94%
    09:00 +20°C° 0 mm 7 mps 766 mmHg 93%
    10:00 +21°C° 0 mm 6 mps 765 mmHg 83%
    11:00 +23°C° 0 mm 5 mps 765 mmHg 74%
    12:00 +26°C° 0 mm 4 mps 765 mmHg 64%
    13:00 +26°C° 0 mm 4 mps 764 mmHg 62%
    14:00 +27°C° 0 mm 4 mps 764 mmHg 59%
    15:00 +27°C° 0 mm 4 mps 763 mmHg 57%
    16:00 +26°C° 0 mm 4 mps 763 mmHg 63%
    17:00 +23°C° 0 mm 4 mps 763 mmHg 68%
    18:00 +21°C° 0 mm 4 mps 763 mmHg 74%
    19:00 +21°C° 0 mm 5 mps 764 mmHg 77%
    20:00 +20°C° 0 mm 5 mps 764 mmHg 80%
    21:00 +19°C° 0 mm 5 mps 765 mmHg 83%
    22:00 +19°C° 0 mm 5 mps 765 mmHg 85%
    23:00 +18°C° 0 mm 4 mps 765 mmHg 87%

    Day after tomorrow, 22 January, Wednesday

    Time Temperature Precipitation Wind Pressure Humidity
    00:00 +18°C° 0 mm 4 mps 764 mmHg 89%
    01:00 +17°C° 0 mm 4 mps 764 mmHg 90%
    02:00 +17°C° 0 mm 4 mps 764 mmHg 91%
    03:00 +17°C° 0 mm 4 mps 763 mmHg 93%
    04:00 +15°C° 0 mm 4 mps 763 mmHg 93%
    05:00 +15°C° 0 mm 4 mps 763 mmHg 94%
    06:00 +15°C° 0 mm 4 mps 763 mmHg 95%
    07:00 +17°C° 0 mm 3 mps 764 mmHg 87%
    08:00 +19°C° 0 mm 3 mps 764 mmHg 79%
    09:00 +21°C° 0 mm 3 mps 765 mmHg 71%
    10:00 +24°C° 0 mm 3 mps 764 mmHg 64%
    11:00 +26°C° 0 mm 3 mps 764 mmHg 57%
    12:00 +29°C° 0 mm 3 mps 763 mmHg 50%
    13:00 +28°C° 0 mm 3 mps 762 mmHg 51%
    14:00 +28°C° 0 mm 3 mps 762 mmHg 53%
    15:00 +28°C° 0 mm 3 mps 761 mmHg 54%
    16:00 +26°C° 0 mm 3 mps 761 mmHg 65%
    17:00 +22°C° 0 mm 3 mps 761 mmHg 76%
    18:00 +20°C° 0 mm 3 mps 760 mmHg 87%
    19:00 +20°C° 0 mm 4 mps 761 mmHg 90%
    20:00 +19°C° 0 mm 4 mps 761 mmHg 92%
    21:00 +19°C° 0 mm 4 mps 762 mmHg 94%
    22:00 +19°C° 0 mm 4 mps 761 mmHg 95%
    23:00 +18°C° 0 mm 3 mps 761 mmHg 96%

    23 January, Thursday

    Time Temperature Precipitation Wind Pressure Humidity
    00:00 +18°C° 0 mm 3 mps 761 mmHg 97%
    01:00 +19°C° 0.1 mm 3 mps 760 mmHg 94%
    02:00 +19°C° 0.1 mm 4 mps 760 mmHg 91%
    03:00 +20°C° 0.1 mm 4 mps 760 mmHg 89%
    04:00 +20°C° 0.2 mm 4 mps 760 mmHg 88%
    05:00 +20°C° 0.2 mm 4 mps 760 mmHg 88%
    06:00 +20°C° 0.2 mm 4 mps 760 mmHg 88%
    07:00 +22°C° 0.1 mm 5 mps 760 mmHg 86%
    08:00 +23°C° 0.1 mm 5 mps 761 mmHg 84%
    09:00 +26°C° 0.1 mm 5 mps 761 mmHg 82%
    10:00 +26°C° 0.2 mm 5 mps 761 mmHg 79%
    11:00 +27°C° 0.2 mm 5 mps 760 mmHg 76%
    12:00 +28°C° 0.2 mm 5 mps 760 mmHg 74%
    13:00 +28°C° 0.1 mm 5 mps 759 mmHg 73%
    14:00 +28°C° 0.1 mm 5 mps 759 mmHg 73%
    15:00 +28°C° 0.1 mm 5 mps 758 mmHg 73%
    16:00 +26°C° 0.1 mm 5 mps 758 mmHg 80%
    17:00 +25°C° 0.1 mm 5 mps 759 mmHg 87%
    18:00 +22°C° 0.1 mm 5 mps 759 mmHg 95%
    19:00 +22°C° 0 mm 5 mps 759 mmHg 95%
    20:00 +22°C° 0 mm 6 mps 760 mmHg 96%
    21:00 +22°C° 0 mm 6 mps 760 mmHg 97%
    22:00 +22°C° 0 mm 5 mps 760 mmHg 97%
    23:00 +22°C° 0 mm 5 mps 760 mmHg 96%

    24 January, Friday

    Time Temperature Precipitation Wind Pressure Humidity
    00:00 +22°C° 0 mm 5 mps 760 mmHg 95%
    01:00 +22°C° 0.1 mm 5 mps 760 mmHg 96%
    02:00 +22°C° 0.1 mm 5 mps 759 mmHg 96%
    03:00 +22°C° 0.1 mm 4 mps 759 mmHg 97%
    04:00 +22°C° 0 mm 4 mps 759 mmHg 97%
    05:00 +21°C° 0 mm 4 mps 760 mmHg 97%
    06:00 +21°C° 0 mm 4 mps 760 mmHg 98%
    07:00 +23°C° 0 mm 4 mps 761 mmHg 93%
    08:00 +25°C° 0 mm 4 mps 761 mmHg 88%
    09:00 +26°C° 0 mm 4 mps 762 mmHg 84%
    10:00 +27°C° 0 mm 4 mps 761 mmHg 75%
    11:00 +29°C° 0 mm 4 mps 761 mmHg 67%
    12:00 +30°C° 0 mm 4 mps 761 mmHg 58%
    13:00 +29°C° 0 mm 4 mps 760 mmHg 60%
    14:00 +29°C° 0 mm 4 mps 760 mmHg 62%
    15:00 +28°C° 0 mm 4 mps 759 mmHg 64%
    16:00 +27°C° 0 mm 4 mps 759 mmHg 71%
    17:00 +25°C° 0 mm 4 mps 759 mmHg 78%
    18:00 +22°C° 0 mm 4 mps 760 mmHg 85%
    19:00 +22°C° 0 mm 4 mps 760 mmHg 87%
    20:00 +21°C° 0 mm 4 mps 761 mmHg 89%
    21:00 +21°C° 0 mm 4 mps 761 mmHg 91%
    22:00 +21°C° 0 mm 4 mps 761 mmHg 93%
    23:00 +20°C° 0 mm 4 mps 761 mmHg 95%

    25 January, Saturday

    Time Temperature Precipitation Wind Pressure Humidity
    00:00 +20°C° 0 mm 4 mps 761 mmHg 97%
    01:00 +20°C° 0 mm 3 mps 761 mmHg 95%
    02:00 +21°C° 0 mm 3 mps 761 mmHg 93%
    03:00 +21°C° 0 mm 3 mps 761 mmHg 91%
    04:00 +21°C° 0 mm 3 mps 761 mmHg 91%
    05:00 +21°C° 0 mm 3 mps 761 mmHg 90%
    06:00 +21°C° 0 mm 3 mps 761 mmHg 90%
    07:00 +22°C° 0 mm 3 mps 762 mmHg 84%
    08:00 +25°C° 0 mm 3 mps 763 mmHg 78%
    09:00 +26°C° 0 mm 3 mps 763 mmHg 72%
    10:00 +27°C° 0 mm 3 mps 763 mmHg 68%
    11:00 +27°C° 0 mm 3 mps 763 mmHg 65%
    12:00 +28°C° 0 mm 3 mps 762 mmHg 61%
    13:00 +28°C° 0 mm 2 mps 762 mmHg 60%
    14:00 +29°C° 0 mm 2 mps 761 mmHg 60%
    15:00 +29°C° 0 mm 2 mps 760 mmHg 59%
    16:00 +27°C° 0 mm 2 mps 761 mmHg 67%
    17:00 +25°C° 0 mm 2 mps 761 mmHg 76%
    18:00 +22°C° 0 mm 3 mps 761 mmHg 84%
    19:00 +22°C° 0 mm 3 mps 761 mmHg 86%
    20:00 +21°C° 0 mm 3 mps 762 mmHg 89%
    21:00 +20°C° 0 mm 3 mps 762 mmHg 92%
    22:00 +20°C° 0 mm 2 mps 762 mmHg 93%
    23:00 +20°C° 0 mm 2 mps 762 mmHg 95%
    Show more